This demonstration page uses our WeatherBlox Daily Observations layout. Learn more.

Left ArrowRight Arrow

36.19886, -115.1175

Hourly Observations for February 14, 2017

Temp ( °F °C ) Dew Point ( °F °C ) Humidity (%) Winds ( mph kmh ) Pressure ( in mb ) Visibility ( mi km ) Precip ( " mm )
12:53 am 00:53 Clear 54 12.2 28 -2.2 37 37 SW 3 6 30.11 1020 10 16 0.00 0.00
1:53 am 01:53 Clear 55 12.8 25 -3.9 31 31 NE 6 9 30.11 1020 10 16 0.00 0.00
2:53 am 02:53 Clear 53 11.7 24 -4.4 32 32 N 8 13 30.11 1020 10 16 0.00 0.00
3:53 am 03:53 Clear 53 11.7 20 -6.7 27 27 N 3 6 30.12 1020 10 16 0.00 0.00
4:53 am 04:53 Clear 52 11.1 19 -7.2 27 27 N 12 19 30.14 1021 10 16 0.00 0.00
5:53 am 05:53 Clear 52 11.1 19 -7.2 27 27 N 12 19 30.15 1021 10 16 0.00 0.00
6:53 am 06:53 Sunny 51 10.6 20 -6.7 29 29 NNE 10 17 30.18 1022 10 16 0.00 0.00
7:53 am 07:53 Sunny 54 12.2 20 -6.7 26 26 N 12 19 30.19 1022 10 16 0.00 0.00
8:53 am 08:53 Sunny 58 14.4 16 -8.9 19 19 NNE 13 20 30.21 1023 10 16 0.00 0.00
9:53 am 09:53 Sunny 61 16.1 15 -9.4 17 17 N 12 19 30.21 1023 10 16 0.00 0.00
10:53 am 10:53 Sunny 61 16.1 17 -8.3 18 18 E 5 7 30.21 1023 10 16 0.00 0.00
11:53 am 11:53 Sunny 64 17.8 15 -9.4 15 15 Calm 30.19 1022 10 16 0.00 0.00
12:53 pm 12:53 Sunny 66 18.9 14 -10 13 13 Calm 30.16 1021 10 16 0.00 0.00
1:53 pm 13:53 Sunny 67 19.4 15 -9.4 13 13 Calm 30.14 1021 10 16 0.00 0.00
2:53 pm 14:53 Sunny 68 20 16 -8.9 13 13 E 7 11 30.12 1020 10 16 0.00 0.00
3:53 pm 15:53 Sunny 70 21.1 16 -8.9 12 12 NE 5 7 30.11 1020 10 16 0.00 0.00
4:53 pm 16:53 Sunny 67 19.4 17 -8.3 15 15 E 8 13 30.12 1020 10 16 0.00 0.00
5:53 pm 17:53 Clear 63 17.2 19 -7.2 18 18 ESE 5 7 30.13 1020 10 16 0.00 0.00
6:53 pm 18:53 Clear 60 15.6 21 -6.1 22 22 WNW 6 9 30.15 1021 10 16 0.00 0.00
7:53 pm 19:53 Clear 56 13.3 25 -3.9 30 30 WNW 5 7 30.16 1021 10 16 0.00 0.00
8:53 pm 20:53 Clear 56 13.3 25 -3.9 30 30 WNW 3 6 30.18 1022 10 16 0.00 0.00
9:53 pm 21:53 Clear 53 11.7 27 -2.8 37 37 WNW 5 7 30.19 1022 10 16 0.00 0.00
10:53 pm 22:53 Clear 51 10.6 27 -2.8 39 39 N 3 6 30.20 1023 10 16 0.00 0.00
11:53 pm 23:53 Clear 50 10 27 -2.8 41 41 NW 8 13 30.19 1023 10 16 0.00 0.00

Powered by AerisWeather